CZ-6A DEB

Satellite information

Favourite Embed

Satellite Type and Status

DEBRISIN ORBIT

Key statistics

Satellite CZ-6A DEB at a glance.

Uptime

1088

Days in orbit

Revolutions

≈ 14.5

Per day

Orbit

SSO

Sun Synchronous Orbit

Inclination

98.6

Latest

Satellite identification and parameters

Extended collection of information and parameters for CZ-6A DEB.

Object identification

Identified? True

Debris? True

Object name: CZ-6A DEB

International designator: 2022-151SN

Object number (NORAD): 54949

Object ID (CCSDS): 54949

Country: PEOPLES REPUBLIC OF CHINA (PRC)

Current information (Y/N): Y

RCS size: SMALL

Orbital parameters

Period: 99.417 minutes

Inclination: 98.6306 deg

SMA: 7108.848 km

Apoapsis: 797.27 km

Periapsis: 664.157 km

RAAN: 340.5239 deg

Eccentricy: 0.0093625

Argument of periapsis: 310.2225 deg

Mean anomaly: 49.0803 deg

Mean motion: 14.48451296 rev/day

Mean motion (dot): 0.00004981 rev/day2

B* drag term: 0.0012692 1/REarth

Two-line elements (TLE)

Creation date: Nov. 2, 2025, 4:06 p.m.

Reference frame: TEME

Reference center: EARTH

Epoch: Nov. 2, 2025, 8:34 a.m. UTC

TLE line 0: 0 CZ-6A DEB

TLE line 1: 1 54949U 22151SN 25306.35738552 .00004981 00000-0 12692-2 0 9990

TLE line 2: 2 54949 98.6306 340.5239 0093625 310.2225 49.0803 14.48451296156214

Live tracking on map

Real-time ground track for satellite CZ-6A DEB.

In-orbit conjunctions

A list of the most updated potential collisions computed for object CZ-6A DEB.

Target Orbit TCA Probability of collision Miss distance Type
FENGYUN 1C DEB SSO 2025-04-22 16:09:12 0.0001168114 292.0 (m) DEBRIS
COSMOS 2251 DEB LEO 2025-02-25 04:35:47 0.0007739635 81.0 (m) DEBRIS

Associated space launch

Chinese satellite reported for atmospheric/ocean/environmental/spatial parameter research purposes, details TBD.

CZ-6A DEB was lifted into orbit during the mission ‘Long March 6A | Yunhai 3’, on board a Long March 6A space rocket.

The launch took place on Nov. 11, 2022, 10:52 p.m. from Launch Complex 9A.

For more information about the launch, click the button.

Launch to space Long March 6A | Yunhai 3
Long March 6A | Yunhai 3

Agency: N/A

Status: Launch Successful

Launch date: Nov. 11, 2022, 10:52 p.m. UTC

Rocket: Long March 6A

Launch pad: Launch Complex 9A

Location: Taiyuan Satellite Launch Center, People's Republic of China

...

Latest news about this satellite

There are no fresh news available about this satellite. Check back as we update our databases every day.


Newsletter sign-up

Weekly statistics, charts and insights to help you stay on top of the space industry.